Fargo, ND

9:06 AM CDT on October 18, 2019 (GMT -0500)
Hector International

Weather History for KFAR - August, 2019

Change the Weather History Date:

Sunday, August 25, 2019

  Actual Average Record
Temperature  
Mean Temperature 65 °F 68 °F  
Max Temperature 68 °F 80 °F 100 °F (1886)
Min Temperature 62 °F 56 °F 32 °F (1885)
Degree Days  
Heating Degree Days 0 2  
Month to date heating degree days 19 23  
Since 1 June heating degree days 83 112  
Since 1 July heating degree days 25 39  
Cooling Degree Days 0 4  
Month to date cooling degree days 92 145  
Year to date cooling degree days 470 485  
Since 1 June cooling degree days 460 454  
Growing Degree Days 15 (Base 50)    
Moisture  
Dew Point 60 °F    
Average Humidity 82    
Maximum Humidity 96    
Minimum Humidity 73    
Precipitation  
Precipitation 1.24 in 0.10 in 2.35 in (1921)
Month to date precipitation 3.53 2.01  
Year to date precipitation 19.87 15.48  
Snow  
Snow 0.00 in 0.00 in 0.00 in ()
Month to date snowfall 0.0 0.0  
Since 1 June snowfall 0.0 0.0  
Since 1 July snowfall 0.0 0.0  
Snow Depth 0.00 in    
Sea Level Pressure  
Sea Level Pressure 29.82 in    
Wind  
Wind Speed 14 mph ()    
Max Wind Speed 24 mph    
Max Gust Speed 34 mph    
Visibility 8.6 miles    
Events Rain , Thunderstorm    
T = Trace of Precipitation, MM = Missing Value Source: Averaged Metar Reports

Daily Weather History Graph

Daily Weather History Graph

Search for Another Location

Airport or City:

Astronomy

Aug. 25, 2019 Rise Set
Actual Time 6:37 AM CDT 8:20 PM CDT
Civil Twilight 6:05 AM CDT 8:52 PM CDT
Nautical Twilight 5:25 AM CDT 9:31 PM CDT
Astronomical Twilight 4:42 AM CDT 10:14 PM CDT
Moon 1:01 AM CDT (8/25) 4:56 PM CDT (8/25)
Length of Visible Light 14h 47m
Length of Day
13h 42m
Waning Crescent, 29% of the Moon is Illuminated
Aug 25
Waning Crescent
Aug 30
New
Sep 5
First Quarter
Sep 13
Full
Sep 21
Last Quarter

Hourly Weather History & Observations

Time (CDT) Temp. Dew Point Humidity Pressure Visibility Wind Dir Wind Speed Gust Speed Precip Events Conditions
12:53 AM 64.9 °F 55.9 °F 73% 29.95 in 10.0 mi SSE 15.0 mph 28.8 mph N/A   Clear
1:53 AM 64.0 °F 55.9 °F 75% 29.94 in 10.0 mi SSE 17.3 mph 26.5 mph N/A   Clear
2:53 AM 64.0 °F 55.0 °F 73% 29.92 in 10.0 mi SSE 16.1 mph 26.5 mph N/A   Clear
3:53 AM 64.0 °F 55.0 °F 73% 29.88 in 10.0 mi SSE 16.1 mph 27.6 mph N/A   Clear
4:53 AM 63.0 °F 55.0 °F 75% 29.87 in 10.0 mi SSE 12.7 mph 23.0 mph N/A   Scattered Clouds
5:53 AM 63.0 °F 55.0 °F 75% 29.86 in 10.0 mi SSE 15.0 mph 27.6 mph N/A   Overcast
6:53 AM 63.0 °F 55.9 °F 78% 29.86 in 10.0 mi SSE 16.1 mph 23.0 mph N/A   Mostly Cloudy
7:53 AM 64.0 °F 55.9 °F 75% 29.85 in 10.0 mi SSE 16.1 mph 27.6 mph N/A   Clear
8:53 AM 64.0 °F 57.0 °F 78% 29.85 in 10.0 mi SSE 17.3 mph 28.8 mph N/A   Mostly Cloudy
9:53 AM 66.0 °F 59.0 °F 78% 29.85 in 10.0 mi South 13.8 mph 27.6 mph N/A   Overcast
10:18 AM 66.9 °F 60.1 °F 79% 29.85 in 10.0 mi SSE 12.7 mph 23.0 mph N/A   Overcast
10:53 AM 66.9 °F 60.1 °F 79% 29.86 in 10.0 mi South 15.0 mph 25.3 mph N/A   Overcast
11:53 AM 66.9 °F 61.0 °F 81% 29.85 in 10.0 mi SSE 12.7 mph 21.9 mph N/A   Overcast
12:53 PM 66.9 °F 61.0 °F 81% 29.83 in 10.0 mi SSE 15.0 mph 27.6 mph N/A   Overcast
1:53 PM 66.0 °F 61.0 °F 84% 29.83 in 10.0 mi SSE 16.1 mph 28.8 mph 0.00 in   Overcast
2:53 PM 66.9 °F 61.0 °F 81% 29.82 in 10.0 mi SSE 19.6 mph 31.1 mph N/A   Overcast
3:34 PM 66.9 °F 61.0 °F 81% 29.80 in 10.0 mi SSE 18.4 mph 27.6 mph N/A   Overcast
3:53 PM 66.9 °F 61.0 °F 81% 29.79 in 10.0 mi SSE 18.4 mph 28.8 mph N/A   Overcast
4:53 PM 66.9 °F 61.0 °F 81% 29.79 in 10.0 mi SSE 17.3 mph 28.8 mph N/A   Overcast
5:53 PM 66.9 °F 61.0 °F 81% 29.77 in 10.0 mi SSE 15.0 mph 26.5 mph N/A   Overcast
6:53 PM 66.9 °F 61.0 °F 81% 29.76 in 10.0 mi SSE 12.7 mph 28.8 mph N/A   Overcast
7:53 PM 66.9 °F 61.0 °F 81% 29.75 in 10.0 mi SSE 18.4 mph 26.5 mph N/A   Overcast
8:53 PM 66.0 °F 61.0 °F 84% 29.75 in 10.0 mi SE 17.3 mph 31.1 mph N/A   Overcast
9:12 PM 66.9 °F 61.0 °F 81% 29.76 in 10.0 mi SSE 18.4 mph 31.1 mph N/A   Overcast
9:25 PM 66.9 °F 62.1 °F 84% 29.77 in 10.0 mi SSE 17.3 mph 29.9 mph N/A   Overcast
9:53 PM 66.9 °F 62.1 °F 84% 29.76 in 10.0 mi SSE 18.4 mph 32.2 mph N/A   Overcast
10:53 PM 66.0 °F 62.1 °F 87% 29.75 in 10.0 mi SSE 16.1 mph 29.9 mph N/A Thunderstorm Overcast
11:07 PM 66.0 °F 62.1 °F 87% 29.76 in 9.0 mi SSE 15.0 mph 32.2 mph N/A Thunderstorm Overcast
11:18 PM 64.4 °F 62.6 °F 94% 29.79 in 4.0 mi SW 11.5 mph 24.2 mph N/A Rain , Thunderstorm Thunderstorms and Rain
11:21 PM 64.9 °F 63.0 °F 93% 29.79 in 1.5 mi SSW 10.4 mph - 0.00 in Rain , Thunderstorm Heavy Thunderstorms and Rain
11:27 PM 64.0 °F 63.0 °F 96% 29.79 in 0.8 mi SSW 5.8 mph - 0.21 in Rain , Thunderstorm Heavy Thunderstorms and Rain
11:45 PM 62.1 °F 61.0 °F 96% 29.80 in 1.0 mi NNE 10.4 mph - 0.92 in Rain , Thunderstorm Heavy Thunderstorms and Rain
11:53 PM 62.1 °F 61.0 °F 96% 29.79 in 2.0 mi East 6.9 mph - 1.10 in Rain , Thunderstorm Heavy Rain
11:57 PM 62.1 °F 61.0 °F 96% 29.77 in 3.0 mi East 10.4 mph - 0.02 in Rain , Thunderstorm Rain